Location: Bartshausen
(51.8454°N, 9.8167°E)
Time: 10:39:44
(UTC+00:00)

Iridium 4 Rocket - Pass Details

Date: 17 February 2026
Orbit: 579 x 887 km, 86.9° (Epoch: 8 March)

Event Time Altitude Azimuth Distance (km) Brightness Sun altitude
Rises 20:39:00 0° 344° (NNW) 3,078 7.2 -36.6°
Reaches altitude 10° 20:42:06 10° 324° (NW) 2,094 6.4 -37.0°
Enters shadow 20:44:45 16° 288° (WNW) 1,671 5.8 -37.3°
